Tracking 26940 objects as of 28-Jan-2023
HD Live streaming from Space Station
objects crossing your sky now

COSMOS 2564 (GLONASS)

Track COSMOS 2564 (GLONASS) now!
COSMOS 2564 (GLONASS) is classified as:


NORAD ID: 54377
Int'l Code: 2022-161A
Perigee: 19,120.3 km
Apogee: 19,153.8 km
Inclination: 64.8 °
Period: 675.7 minutes
Semi major axis: 25508 km
RCS: Unknown
Launch date: November 28, 2022
Source: Commonwealth of Independent States (former USSR) (CIS)
Launch site: PLESETSK MISSILE AND SPACE COMPLEX (PKMTR)
SV: 761
Your satellite tracking list
Your tracking list is empty




NASA's NSSDC Master Catalog

Two Line Element Set (TLE):
1 54377U 22161A   23027.81924267  .00000074  00000-0  00000-0 0  9992
2 54377  64.7725 233.9089 0006569 210.3443 208.8242  2.13102155  1283
Source of the keplerian elements: AFSPC